"Sample Date","Sample Time","Sensor Name","Sample Value","Units","Flow Rate","Sample Interval","Sample Volume","Laser Status","Number Channels","Micron Size 0","Counts/Channel 0","Micron Size 1","Counts/Channel 1","Micron Size 2","Counts/Channel 2","Micron Size 3","Counts/Channel 3","Micron Size 4","Counts/Channel 4","Micron Size 5","Counts/Channel 5","Micron Size 6","Counts/Channel 6","Micron Size 7","Counts/Channel 7","Micron Size 8","Counts/Channel 8","Micron Size 9","Counts/Channel 9","Micron Size 10","Counts/Channel 10","Micron Size 11","Counts/Channel 11","Micron Size 12","Counts/Channel 12","Micron Size 13","Counts/Channel 13","Micron Size 14","Counts/Channel 14","Micron Size 15","Counts/Channel 15","Micron Size 16","Counts/Channel 16","Micron Size 17","Counts/Channel 17","Micron Size 18","Counts/Channel 18","Micron Size 19","Counts/Channel 19","Micron Size 20","Counts/Channel 20","Micron Size 21","Counts/Channel 21","Micron Size 22","Counts/Channel 22","Micron Size 23","Counts/Channel 23","Micron Size 24","Counts/Channel 24","Micron Size 25","Counts/Channel 25","Micron Size 26","Counts/Channel 26","Micron Size 27","Counts/Channel 27","Micron Size 28","Counts/Channel 28","Micron Size 29","Counts/Channel 29","Micron Size 30","Counts/Channel 30","Micron Size 31","Counts/Channel 31"
"07/11/06","02:00:02","AMMA06",40965.000,"cc",27014.732,6.00,2701.473,1,6,0.100,15042.000,0.200,14101.000,0.300,9077.000,0.500,2309.000,1.000,436.000,5.000,0
"07/11/06","02:00:08","AMMA06",40131.000,"cc",27744.223,6.00,2774.422,1,6,0.100,14562.000,0.200,13730.000,0.300,9113.000,0.500,2312.000,1.000,414.000,5.000,0
"07/11/06","02:00:14","AMMA06",39955.000,"cc",27829.256,6.00,2782.926,1,6,0.100,14233.000,0.200,13725.000,0.300,9225.000,0.500,2294.000,1.000,478.000,5.000,0
"07/11/06","02:00:20","AMMA06",39206.000,"cc",27966.223,6.00,2796.622,1,6,0.100,14302.000,0.200,13620.000,0.300,8715.000,0.500,2169.000,1.000,400.000,5.000,0
"07/11/06","02:00:26","AMMA06",38970.000,"cc",28016.639,6.00,2801.664,1,6,0.100,14261.000,0.200,13456.000,0.300,8652.000,0.500,2179.000,1.000,421.000,5.000,1.000
"07/11/06","02:00:32","AMMA06",39269.000,"cc",27967.209,6.00,2796.721,1,6,0.100,14440.000,0.200,13812.000,0.300,8512.000,0.500,2085.000,1.000,420.000,5.000,0
"07/11/06","02:00:38","AMMA06",39227.000,"cc",27875.553,6.00,2787.555,1,6,0.100,14395.000,0.200,14032.000,0.300,8269.000,0.500,2124.000,1.000,407.000,5.000,0
"07/11/06","02:00:44","AMMA06",38838.000,"cc",27923.707,6.00,2792.371,1,6,0.100,14552.000,0.200,13782.000,0.300,8090.000,0.500,2033.000,1.000,381.000,5.000,0
"07/11/06","02:00:50","AMMA06",38817.000,"cc",27953.707,6.00,2795.371,1,6,0.100,14576.000,0.200,13899.000,0.300,7996.000,0.500,1954.000,1.000,391.000,5.000,1.000
"07/11/06","02:00:56","AMMA06",38824.000,"cc",28012.291,6.00,2801.229,1,6,0.100,14882.000,0.200,13670.000,0.300,7925.000,0.500,1949.000,1.000,398.000,5.000,0
"07/11/06","02:01:02","AMMA06",39239.000,"cc",28170.449,6.00,2817.045,1,6,0.100,14943.000,0.200,14052.000,0.300,7961.000,0.500,1874.000,1.000,409.000,5.000,0
"07/11/06","02:01:08","AMMA06",39906.000,"cc",28430.779,6.00,2843.078,1,6,0.100,15374.000,0.200,14001.000,0.300,8076.000,0.500,2038.000,1.000,415.000,5.000,2.000
"07/11/06","02:01:14","AMMA06",44794.000,"cc",27822.914,6.00,2782.292,1,6,0.100,18683.000,0.200,14466.000,0.300,8769.000,0.500,2404.000,1.000,460.000,5.000,12.000
"07/11/06","02:01:20","AMMA06",40794.000,"cc",26981.111,6.00,2698.111,1,6,0.100,14340.000,0.200,14665.000,0.300,9010.000,0.500,2326.000,1.000,453.000,5.000,0
"07/11/06","02:01:26","AMMA06",41038.000,"cc",27762.000,6.00,2776.200,1,6,0.100,14508.000,0.200,14372.000,0.300,9350.000,0.500,2381.000,1.000,427.000,5.000,0
"07/11/06","02:01:32","AMMA06",40515.000,"cc",27838.133,6.00,2783.814,1,6,0.100,14193.000,0.200,14486.000,0.300,9157.000,0.500,2284.000,1.000,395.000,5.000,0
"07/11/06","02:01:38","AMMA06",40678.000,"cc",27903.602,6.00,2790.360,1,6,0.100,14373.000,0.200,14764.000,0.300,8889.000,0.500,2240.000,1.000,412.000,5.000,0
"07/11/06","02:01:44","AMMA06",40783.000,"cc",27850.484,6.00,2785.049,1,6,0.100,14773.000,0.200,14965.000,0.300,8595.000,0.500,2055.000,1.000,395.000,5.000,0
"07/11/06","02:01:50","AMMA06",40594.000,"cc",27939.010,6.00,2793.901,1,6,0.100,15021.000,0.200,14776.000,0.300,8475.000,0.500,1951.000,1.000,371.000,5.000,0
"07/11/06","02:01:56","AMMA06",40596.000,"cc",27896.619,6.00,2789.662,1,6,0.100,15110.000,0.200,14912.000,0.300,8314.000,0.500,1844.000,1.000,416.000,5.000,0
"07/11/06","02:02:02","AMMA06",40811.000,"cc",27882.277,6.00,2788.228,1,6,0.100,15184.000,0.200,15281.000,0.300,8095.000,0.500,1832.000,1.000,419.000,5.000,0
"07/11/06","02:02:08","AMMA06",40991.000,"cc",27842.772,6.00,2784.277,1,6,0.100,15325.000,0.200,15549.000,0.300,7976.000,0.500,1793.000,1.000,347.000,5.000,1.000
"07/11/06","02:02:14","AMMA06",40959.000,"cc",27829.680,6.00,2782.968,1,6,0.100,15355.000,0.200,15787.000,0.300,7794.000,0.500,1666.000,1.000,357.000,5.000,0
"07/11/06","02:02:20","AMMA06",41265.000,"cc",27862.008,6.00,2786.201,1,6,0.100,15661.000,0.200,16070.000,0.300,7604.000,0.500,1541.000,1.000,389.000,5.000,0
"07/11/06","02:02:26","AMMA06",41070.000,"cc",27827.371,6.00,2782.737,1,6,0.100,15582.000,0.200,15881.000,0.300,7611.000,0.500,1569.000,1.000,427.000,5.000,0
"07/11/06","02:02:32","AMMA06",41353.000,"cc",27952.162,6.00,2795.216,1,6,0.100,16146.000,0.200,15801.000,0.300,7455.000,0.500,1538.000,1.000,413.000,5.000,0
"07/11/06","02:02:38","AMMA06",41356.000,"cc",28251.465,6.00,2825.147,1,6,0.100,16206.000,0.200,16063.000,0.300,7239.000,0.500,1438.000,1.000,410.000,5.000,0
"07/11/06","02:02:44","AMMA06",40778.000,"cc",28301.049,6.00,2830.105,1,6,0.100,15995.000,0.200,15926.000,0.300,7123.000,0.500,1357.000,1.000,376.000,5.000,1.000
"07/11/06","02:02:50","AMMA06",40726.000,"cc",28709.147,6.00,2870.915,1,6,0.100,15947.000,0.200,15657.000,0.300,7326.000,0.500,1394.000,1.000,402.000,5.000,0
"07/11/06","02:02:56","AMMA06",40459.000,"cc",28684.356,6.00,2868.436,1,6,0.100,15720.000,0.200,15604.000,0.300,7287.000,0.500,1434.000,1.000,414.000,5.000,0
"07/11/06","02:03:02","AMMA06",41690.000,"cc",29126.117,6.00,2912.612,1,6,0.100,16622.000,0.200,15741.000,0.300,7388.000,0.500,1444.000,1.000,494.000,5.000,1.000
"07/11/06","02:03:08","AMMA06",41746.000,"cc",29499.596,6.00,2949.960,1,6,0.100,16994.000,0.200,15603.000,0.300,7308.000,0.500,1377.000,1.000,464.000,5.000,0
"07/11/06","02:03:14","AMMA06",42341.000,"cc",29655.438,6.00,2965.544,1,6,0.100,17143.000,0.200,15646.000,0.300,7594.000,0.500,1443.000,1.000,515.000,5.000,0
"07/11/06","02:03:20","AMMA06",42001.000,"cc",29745.076,6.00,2974.508,1,6,0.100,16942.000,0.200,15641.000,0.300,7395.000,0.500,1469.000,1.000,554.000,5.000,0
"07/11/06","02:03:26","AMMA06",43606.000,"cc",29689.463,6.00,2968.947,1,6,0.100,17662.000,0.200,15601.000,0.300,7792.000,0.500,1744.000,1.000,807.000,5.000,0
"07/11/06","02:03:32","AMMA06",44166.000,"cc",29680.195,6.00,2968.020,1,6,0.100,17699.000,0.200,15774.000,0.300,7934.000,0.500,1865.000,1.000,893.000,5.000,1.000
"07/11/06","02:03:38","AMMA06",43325.000,"cc",29703.275,6.00,2970.328,1,6,0.100,17243.000,0.200,15618.000,0.300,7791.000,0.500,1783.000,1.000,890.000,5.000,0
"07/11/06","02:03:44","AMMA06",44021.000,"cc",29645.766,6.00,2964.577,1,6,0.100,17675.000,0.200,15705.000,0.300,7973.000,0.500,1869.000,1.000,799.000,5.000,0
"07/11/06","02:03:50","AMMA06",45283.000,"cc",29430.053,6.00,2943.005,1,6,0.100,18669.000,0.200,16119.000,0.300,7669.000,0.500,1891.000,1.000,935.000,5.000,0
"07/11/06","02:03:56","AMMA06",44481.000,"cc",28802.426,6.00,2880.243,1,6,0.100,18498.000,0.200,15894.000,0.300,7428.000,0.500,1777.000,1.000,884.000,5.000,0
"07/11/06","02:04:02","AMMA06",42830.000,"cc",28474.170,6.00,2847.417,1,6,0.100,17765.000,0.200,15513.000,0.300,7210.000,0.500,1600.000,1.000,742.000,5.000,0
"07/11/06","02:04:08","AMMA06",42149.000,"cc",28359.076,6.00,2835.908,1,6,0.100,17793.000,0.200,15348.000,0.300,6842.000,0.500,1554.000,1.000,612.000,5.000,0
"07/11/06","02:04:14","AMMA06",40210.000,"cc",28299.297,6.00,2829.930,1,6,0.100,16997.000,0.200,14865.000,0.300,6451.000,0.500,1391.000,1.000,505.000,5.000,1.000
"07/11/06","02:04:20","AMMA06",42843.000,"cc",28340.856,6.00,2834.086,1,6,0.100,18300.000,0.200,15640.000,0.300,6760.000,0.500,1514.000,1.000,628.000,5.000,1.000
"07/11/06","02:04:26","AMMA06",44513.000,"cc",28314.057,6.00,2831.406,1,6,0.100,19297.000,0.200,16333.000,0.300,6819.000,0.500,1488.000,1.000,575.000,5.000,1.000
"07/11/06","02:04:32","AMMA06",44817.000,"cc",28337.529,6.00,2833.753,1,6,0.100,19218.000,0.200,16203.000,0.300,7066.000,0.500,1631.000,1.000,698.000,5.000,1.000
"07/11/06","02:04:38","AMMA06",45691.000,"cc",28300.141,6.00,2830.014,1,6,0.100,19724.000,0.200,16419.000,0.300,7085.000,0.500,1675.000,1.000,788.000,5.000,0
"07/11/06","02:04:44","AMMA06",44075.000,"cc",28314.949,6.00,2831.495,1,6,0.100,19225.000,0.200,16176.000,0.300,6642.000,0.500,1420.000,1.000,611.000,5.000,1.000
"07/11/06","02:04:50","AMMA06",43201.000,"cc",28326.795,6.00,2832.680,1,6,0.100,18703.000,0.200,15965.000,0.300,6595.000,0.500,1395.000,1.000,543.000,5.000,0
"07/11/06","02:04:56","AMMA06",42587.000,"cc",28303.580,6.00,2830.358,1,6,0.100,18589.000,0.200,15635.000,0.300,6465.000,0.500,1398.000,1.000,500.000,5.000,0
"07/11/06","02:05:02","AMMA06",42535.000,"cc",28346.293,6.00,2834.629,1,6,0.100,18458.000,0.200,15810.000,0.300,6415.000,0.500,1378.000,1.000,473.000,5.000,1.000
"07/11/06","02:05:08","AMMA06",42772.000,"cc",28309.482,6.00,2830.949,1,6,0.100,18385.000,0.200,15669.000,0.300,6745.000,0.500,1456.000,1.000,517.000,5.000,0
"07/11/06","02:05:14","AMMA06",44151.000,"cc",28345.955,6.00,2834.596,1,6,0.100,19131.000,0.200,16119.000,0.300,6774.000,0.500,1508.000,1.000,619.000,5.000,0
"07/11/06","02:05:20","AMMA06",44475.000,"cc",28332.273,6.00,2833.228,1,6,0.100,18814.000,0.200,15784.000,0.300,7092.000,0.500,1789.000,1.000,996.000,5.000,0
"07/11/06","02:05:26","AMMA06",45290.000,"cc",28277.500,6.00,2827.750,1,6,0.100,19134.000,0.200,15793.000,0.300,7228.000,0.500,1914.000,1.000,1220.000,5.000,1.000
"07/11/06","02:05:32","AMMA06",45070.000,"cc",28338.316,6.00,2833.832,1,6,0.100,18909.000,0.200,15363.000,0.300,7708.000,0.500,1987.000,1.000,1101.000,5.000,2.000
"07/11/06","02:05:38","AMMA06",43422.000,"cc",28377.959,6.00,2837.796,1,6,0.100,17877.000,0.200,15235.000,0.300,7581.000,0.500,1829.000,1.000,898.000,5.000,2.000
"07/11/06","02:05:44","AMMA06",44817.000,"cc",28355.494,6.00,2835.550,1,6,0.100,18130.000,0.200,15096.000,0.300,8202.000,0.500,2208.000,1.000,1181.000,5.000,0
"07/11/06","02:05:50","AMMA06",47690.000,"cc",28302.107,6.00,2830.211,1,6,0.100,19017.000,0.200,15613.000,0.300,8979.000,0.500,2514.000,1.000,1566.000,5.000,1.000
"07/11/06","02:05:56","AMMA06",52265.000,"cc",27555.934,6.00,2755.594,1,6,0.100,23899.000,0.200,15264.000,0.300,9298.000,0.500,2527.000,1.000,1227.000,5.000,50.000
"07/11/06","02:06:02","AMMA06",48493.000,"cc",25915.639,6.00,2591.564,1,6,0.100,18341.000,0.200,15925.000,0.300,10292.000,0.500,2823.000,1.000,1103.000,5.000,9.000
"07/11/06","02:06:08","AMMA06",47199.000,"cc",26114.008,6.00,2611.401,1,6,0.100,18029.000,0.200,15838.000,0.300,9991.000,0.500,2489.000,1.000,852.000,5.000,0
"07/11/06","02:06:14","AMMA06",46690.000,"cc",26555.949,6.00,2655.595,1,6,0.100,17581.000,0.200,15911.000,0.300,9903.000,0.500,2478.000,1.000,816.000,5.000,1.000
"07/11/06","02:06:20","AMMA06",46556.000,"cc",27318.531,6.00,2731.853,1,6,0.100,18077.000,0.200,16127.000,0.300,9390.000,0.500,2258.000,1.000,704.000,5.000,0
"07/11/06","02:06:26","AMMA06",46613.000,"cc",27796.375,6.00,2779.638,1,6,0.100,18381.000,0.200,16030.000,0.300,9384.000,0.500,2165.000,1.000,652.000,5.000,1.000
"07/11/06","02:06:32","AMMA06",45392.000,"cc",27894.440,6.00,2789.444,1,6,0.100,17741.000,0.200,15895.000,0.300,9010.000,0.500,2114.000,1.000,632.000,5.000,0
"07/11/06","02:06:38","AMMA06",44252.000,"cc",27894.330,6.00,2789.433,1,6,0.100,17333.000,0.200,15651.000,0.300,8770.000,0.500,2018.000,1.000,480.000,5.000,0
"07/11/06","02:06:44","AMMA06",42488.000,"cc",27918.023,6.00,2791.803,1,6,0.100,16553.000,0.200,15226.000,0.300,8325.000,0.500,1925.000,1.000,459.000,5.000,0
"07/11/06","02:06:50","AMMA06",38945.000,"cc",27949.871,6.00,2794.987,1,6,0.100,14869.000,0.200,14252.000,0.300,7730.000,0.500,1714.000,1.000,380.000,5.000,0
"07/11/06","02:06:56","AMMA06",38736.000,"cc",27937.596,6.00,2793.760,1,6,0.100,14864.000,0.200,14286.000,0.300,7563.000,0.500,1666.000,1.000,357.000,5.000,0
"07/11/06","02:07:02","AMMA06",38725.000,"cc",27863.979,6.00,2786.398,1,6,0.100,15087.000,0.200,14438.000,0.300,7195.000,0.500,1643.000,1.000,362.000,5.000,0
"07/11/06","02:07:08","AMMA06",38964.000,"cc",27995.705,6.00,2799.571,1,6,0.100,15415.000,0.200,14383.000,0.300,7167.000,0.500,1625.000,1.000,374.000,5.000,0
"07/11/06","02:07:14","AMMA06",39718.000,"cc",28065.211,6.00,2806.521,1,6,0.100,15748.000,0.200,14808.000,0.300,7215.000,0.500,1546.000,1.000,401.000,5.000,0
"07/11/06","02:07:20","AMMA06",39414.000,"cc",27942.369,6.00,2794.237,1,6,0.100,15670.000,0.200,14481.000,0.300,7299.000,0.500,1592.000,1.000,372.000,5.000,0
"07/11/06","02:07:26","AMMA06",39462.000,"cc",27977.527,6.00,2797.753,1,6,0.100,15786.000,0.200,14648.000,0.300,7005.000,0.500,1641.000,1.000,382.000,5.000,0
"07/11/06","02:07:32","AMMA06",40127.000,"cc",28015.389,6.00,2801.539,1,6,0.100,16081.000,0.200,14937.000,0.300,7133.000,0.500,1595.000,1.000,381.000,5.000,0
"07/11/06","02:07:38","AMMA06",39215.000,"cc",27970.397,6.00,2797.040,1,6,0.100,15520.000,0.200,14741.000,0.300,7012.000,0.500,1552.000,1.000,390.000,5.000,0
"07/11/06","02:07:44","AMMA06",40720.000,"cc",28257.318,6.00,2825.732,1,6,0.100,16403.000,0.200,15178.000,0.300,7063.000,0.500,1674.000,1.000,402.000,5.000,0
"07/11/06","02:07:50","AMMA06",42756.000,"cc",28345.645,6.00,2834.565,1,6,0.100,17694.000,0.200,15745.000,0.300,7334.000,0.500,1574.000,1.000,409.000,5.000,0
"07/11/06","02:07:56","AMMA06",45660.000,"cc",27969.684,6.00,2796.969,1,6,0.100,20304.000,0.200,14751.000,0.300,8011.000,0.500,2141.000,1.000,423.000,5.000,30.000
"07/11/06","02:08:02","AMMA06",45655.000,"cc",26734.867,6.00,2673.487,1,6,0.100,17482.000,0.200,16007.000,0.300,9467.000,0.500,2259.000,1.000,440.000,5.000,0
"07/11/06","02:08:08","AMMA06",45395.000,"cc",27620.760,6.00,2762.076,1,6,0.100,17466.000,0.200,15957.000,0.300,9155.000,0.500,2321.000,1.000,496.000,5.000,0
"07/11/06","02:08:14","AMMA06",45754.000,"cc",28005.598,6.00,2800.560,1,6,0.100,17770.000,0.200,16265.000,0.300,9126.000,0.500,2163.000,1.000,430.000,5.000,0
"07/11/06","02:08:20","AMMA06",45629.000,"cc",28132.777,6.00,2813.278,1,6,0.100,17805.000,0.200,16239.000,0.300,8987.000,0.500,2131.000,1.000,467.000,5.000,0
"07/11/06","02:08:26","AMMA06",44785.000,"cc",28102.236,6.00,2810.224,1,6,0.100,17509.000,0.200,15891.000,0.300,8734.000,0.500,2121.000,1.000,530.000,5.000,0
"07/11/06","02:08:32","AMMA06",44254.000,"cc",28232.871,6.00,2823.287,1,6,0.100,17547.000,0.200,15639.000,0.300,8579.000,0.500,2034.000,1.000,454.000,5.000,1.000
"07/11/06","02:08:38","AMMA06",44877.000,"cc",28213.338,6.00,2821.334,1,6,0.100,17968.000,0.200,15985.000,0.300,8490.000,0.500,1983.000,1.000,451.000,5.000,0
"07/11/06","02:08:44","AMMA06",45014.000,"cc",28237.656,6.00,2823.766,1,6,0.100,18147.000,0.200,16144.000,0.300,8317.000,0.500,1978.000,1.000,427.000,5.000,1.000
"07/11/06","02:08:50","AMMA06",45536.000,"cc",28317.176,6.00,2831.718,1,6,0.100,18660.000,0.200,16555.000,0.300,8026.000,0.500,1896.000,1.000,398.000,5.000,1.000
"07/11/06","02:08:56","AMMA06",45489.000,"cc",28412.037,6.00,2841.204,1,6,0.100,18896.000,0.200,16475.000,0.300,7821.000,0.500,1810.000,1.000,487.000,5.000,0
"07/11/06","02:09:02","AMMA06",45257.000,"cc",28618.633,6.00,2861.864,1,6,0.100,18884.000,0.200,16500.000,0.300,7688.000,0.500,1757.000,1.000,428.000,5.000,0
"07/11/06","02:09:08","AMMA06",45442.000,"cc",28918.443,6.00,2891.845,1,6,0.100,18916.000,0.200,16663.000,0.300,7633.000,0.500,1755.000,1.000,475.000,5.000,0
"07/11/06","02:09:14","AMMA06",44940.000,"cc",29271.563,6.00,2927.157,1,6,0.100,18669.000,0.200,16524.000,0.300,7624.000,0.500,1665.000,1.000,458.000,5.000,0
"07/11/06","02:09:20","AMMA06",45163.000,"cc",29308.356,6.00,2930.836,1,6,0.100,18747.000,0.200,16848.000,0.300,7503.000,0.500,1672.000,1.000,393.000,5.000,0
"07/11/06","02:09:26","AMMA06",44903.000,"cc",29582.070,6.00,2958.207,1,6,0.100,18913.000,0.200,16381.000,0.300,7463.000,0.500,1719.000,1.000,427.000,5.000,0
"07/11/06","02:09:32","AMMA06",44793.000,"cc",29707.154,6.00,2970.716,1,6,0.100,18710.000,0.200,16599.000,0.300,7449.000,0.500,1638.000,1.000,397.000,5.000,0
"07/11/06","02:09:38","AMMA06",45022.000,"cc",29653.482,6.00,2965.348,1,6,0.100,18815.000,0.200,16610.000,0.300,7431.000,0.500,1700.000,1.000,466.000,5.000,0
"07/11/06","02:09:44","AMMA06",45383.000,"cc",29682.947,6.00,2968.295,1,6,0.100,18948.000,0.200,16727.000,0.300,7612.000,0.500,1640.000,1.000,456.000,5.000,0
"07/11/06","02:09:50","AMMA06",45147.000,"cc",29605.496,6.00,2960.550,1,6,0.100,18891.000,0.200,16362.000,0.300,7680.000,0.500,1775.000,1.000,439.000,5.000,0
"07/11/06","02:09:56","AMMA06",45479.000,"cc",29585.645,6.00,2958.565,1,6,0.100,18826.000,0.200,16568.000,0.300,7846.000,0.500,1774.000,1.000,465.000,5.000,0
"07/11/06","02:10:02","AMMA06",45010.000,"cc",29458.223,6.00,2945.823,1,6,0.100,18750.000,0.200,16102.000,0.300,7836.000,0.500,1850.000,1.000,472.000,5.000,0
"07/11/06","02:10:08","AMMA06",44061.000,"cc",28854.176,6.00,2885.418,1,6,0.100,18154.000,0.200,15990.000,0.300,7636.000,0.500,1841.000,1.000,440.000,5.000,0
"07/11/06","02:10:14","AMMA06",43387.000,"cc",28445.836,6.00,2844.584,1,6,0.100,17815.000,0.200,15707.000,0.300,7604.000,0.500,1832.000,1.000,429.000,5.000,0
"07/11/06","02:10:20","AMMA06",43840.000,"cc",28287.572,6.00,2828.757,1,6,0.100,18072.000,0.200,15686.000,0.300,7761.000,0.500,1884.000,1.000,437.000,5.000,0
"07/11/06","02:10:26","AMMA06",44088.000,"cc",28301.844,6.00,2830.185,1,6,0.100,18243.000,0.200,15551.000,0.300,7844.000,0.500,1897.000,1.000,553.000,5.000,0
"07/11/06","02:10:32","AMMA06",43843.000,"cc",28373.486,6.00,2837.349,1,6,0.100,17727.000,0.200,15683.000,0.300,8030.000,0.500,1957.000,1.000,446.000,5.000,0
"07/11/06","02:10:38","AMMA06",43874.000,"cc",28332.195,6.00,2833.220,1,6,0.100,17861.000,0.200,15759.000,0.300,7899.000,0.500,1874.000,1.000,481.000,5.000,0
"07/11/06","02:10:44","AMMA06",44456.000,"cc",28300.551,6.00,2830.055,1,6,0.100,18252.000,0.200,15928.000,0.300,7851.000,0.500,1935.000,1.000,490.000,5.000,0
"07/11/06","02:10:50","AMMA06",44978.000,"cc",28266.160,6.00,2826.616,1,6,0.100,18612.000,0.200,16044.000,0.300,7898.000,0.500,1970.000,1.000,454.000,5.000,0
"07/11/06","02:10:56","AMMA06",44905.000,"cc",28314.635,6.00,2831.464,1,6,0.100,18641.000,0.200,15837.000,0.300,7946.000,0.500,2003.000,1.000,478.000,5.000,0
"07/11/06","02:11:02","AMMA06",44798.000,"cc",28298.025,6.00,2829.803,1,6,0.100,18667.000,0.200,15720.000,0.300,7919.000,0.500,1979.000,1.000,513.000,5.000,0
"07/11/06","02:11:08","AMMA06",45179.000,"cc",28355.570,6.00,2835.557,1,6,0.100,18748.000,0.200,15981.000,0.300,8051.000,0.500,1968.000,1.000,431.000,5.000,0
"07/11/06","02:11:14","AMMA06",45457.000,"cc",28350.805,6.00,2835.081,1,6,0.100,18800.000,0.200,16003.000,0.300,8187.000,0.500,1980.000,1.000,487.000,5.000,0
"07/11/06","02:11:20","AMMA06",46418.000,"cc",28296.244,6.00,2829.625,1,6,0.100,19823.000,0.200,15926.000,0.300,8099.000,0.500,2091.000,1.000,479.000,5.000,0
"07/11/06","02:11:26","AMMA06",47273.000,"cc",28343.877,6.00,2834.388,1,6,0.100,20025.000,0.200,16412.000,0.300,8207.000,0.500,2132.000,1.000,496.000,5.000,1.000
"07/11/06","02:11:32","AMMA06",46814.000,"cc",28372.178,6.00,2837.218,1,6,0.100,19830.000,0.200,16360.000,0.300,8083.000,0.500,2060.000,1.000,481.000,5.000,0
"07/11/06","02:11:38","AMMA06",46697.000,"cc",28304.803,6.00,2830.481,1,6,0.100,19661.000,0.200,16267.000,0.300,8192.000,0.500,2066.000,1.000,511.000,5.000,0
"07/11/06","02:11:44","AMMA06",49305.000,"cc",28280.469,6.00,2828.047,1,6,0.100,21083.000,0.200,17158.000,0.300,8427.000,0.500,2105.000,1.000,532.000,5.000,0
"07/11/06","02:11:50","AMMA06",50130.000,"cc",28328.348,6.00,2832.835,1,6,0.100,21642.000,0.200,17430.000,0.300,8301.000,0.500,2222.000,1.000,534.000,5.000,1.000
"07/11/06","02:11:56","AMMA06",50376.000,"cc",28316.988,6.00,2831.699,1,6,0.100,21830.000,0.200,17357.000,0.300,8470.000,0.500,2180.000,1.000,539.000,5.000,0
"07/11/06","02:12:02","AMMA06",52187.000,"cc",28271.871,6.00,2827.187,1,6,0.100,22215.000,0.200,17712.000,0.300,9159.000,0.500,2436.000,1.000,665.000,5.000,0
"07/11/06","02:12:08","AMMA06",52486.000,"cc",28320.467,6.00,2832.047,1,6,0.100,22229.000,0.200,18035.000,0.300,9272.000,0.500,2431.000,1.000,518.000,5.000,1.000
"07/11/06","02:12:14","AMMA06",53412.000,"cc",28331.197,6.00,2833.120,1,6,0.100,22713.000,0.200,17891.000,0.300,9485.000,0.500,2593.000,1.000,730.000,5.000,0
"07/11/06","02:12:20","AMMA06",53708.000,"cc",28366.684,6.00,2836.669,1,6,0.100,23198.000,0.200,18219.000,0.300,9252.000,0.500,2439.000,1.000,600.000,5.000,0
"07/11/06","02:12:26","AMMA06",53635.000,"cc",28288.633,6.00,2828.864,1,6,0.100,23261.000,0.200,18234.000,0.300,9110.000,0.500,2476.000,1.000,553.000,5.000,1.000
"07/11/06","02:12:32","AMMA06",53210.000,"cc",28337.389,6.00,2833.739,1,6,0.100,22918.000,0.200,18154.000,0.300,9054.000,0.500,2467.000,1.000,617.000,5.000,0
"07/11/06","02:12:38","AMMA06",53072.000,"cc",28292.686,6.00,2829.269,1,6,0.100,23009.000,0.200,18046.000,0.300,9103.000,0.500,2399.000,1.000,515.000,5.000,0
"07/11/06","02:12:44","AMMA06",53325.000,"cc",28294.998,6.00,2829.500,1,6,0.100,22957.000,0.200,18172.000,0.300,9081.000,0.500,2524.000,1.000,591.000,5.000,0
"07/11/06","02:12:50","AMMA06",53459.000,"cc",28334.512,6.00,2833.451,1,6,0.100,23438.000,0.200,18300.000,0.300,8864.000,0.500,2347.000,1.000,510.000,5.000,0
"07/11/06","02:12:56","AMMA06",54819.000,"cc",28306.748,6.00,2830.675,1,6,0.100,23546.000,0.200,18478.000,0.300,9664.000,0.500,2583.000,1.000,548.000,5.000,0
"07/11/06","02:13:02","AMMA06",53984.000,"cc",28342.635,6.00,2834.264,1,6,0.100,23218.000,0.200,18133.000,0.300,9539.000,0.500,2554.000,1.000,540.000,5.000,0
"07/11/06","02:13:08","AMMA06",52248.000,"cc",28315.613,6.00,2831.562,1,6,0.100,21997.000,0.200,17623.000,0.300,9419.000,0.500,2597.000,1.000,612.000,5.000,0
"07/11/06","02:13:14","AMMA06",52529.000,"cc",28268.113,6.00,2826.812,1,6,0.100,22822.000,0.200,17666.000,0.300,9047.000,0.500,2412.000,1.000,582.000,5.000,0
"07/11/06","02:13:20","AMMA06",51836.000,"cc",28354.770,6.00,2835.477,1,6,0.100,22211.000,0.200,17646.000,0.300,8981.000,0.500,2415.000,1.000,583.000,5.000,0
"07/11/06","02:13:26","AMMA06",53565.000,"cc",28342.992,6.00,2834.299,1,6,0.100,23023.000,0.200,18410.000,0.300,9111.000,0.500,2465.000,1.000,556.000,5.000,0
"07/11/06","02:13:32","AMMA06",54768.000,"cc",28370.729,6.00,2837.073,1,6,0.100,24034.000,0.200,18814.000,0.300,9059.000,0.500,2333.000,1.000,528.000,5.000,0
"07/11/06","02:13:38","AMMA06",54932.000,"cc",28301.133,6.00,2830.114,1,6,0.100,24226.000,0.200,18861.000,0.300,8926.000,0.500,2355.000,1.000,564.000,5.000,0
"07/11/06","02:13:44","AMMA06",55340.000,"cc",28295.443,6.00,2829.544,1,6,0.100,24462.000,0.200,18783.000,0.300,8886.000,0.500,2460.000,1.000,749.000,5.000,0
"07/11/06","02:13:50","AMMA06",54402.000,"cc",28309.736,6.00,2830.974,1,6,0.100,24084.000,0.200,18677.000,0.300,8817.000,0.500,2240.000,1.000,584.000,5.000,0
"07/11/06","02:13:56","AMMA06",54222.000,"cc",28297.725,6.00,2829.773,1,6,0.100,24154.000,0.200,18586.000,0.300,8643.000,0.500,2245.000,1.000,594.000,5.000,0
"07/11/06","02:14:02","AMMA06",53609.000,"cc",28358.154,6.00,2835.816,1,6,0.100,23739.000,0.200,18820.000,0.300,8427.000,0.500,2108.000,1.000,515.000,5.000,0